Location: Gleizolles
(44.4833°N, 6.7667°E)
Time: 13:22:20
(UTC+00:00)

deb Explorer IX - Pass Details

Date: 28 June 2024
Orbit: 510 x 878 km, 38.7° (Epoch: 21 July)

Event Time Altitude Azimuth Distance (km) Brightness Sun altitude
Rises 09:11:04 0° 267° (W) 2,777 ? 53.6°
Reaches altitude 10° 09:13:28 10° 256° (WSW) 1,932 ? 54.0°
Maximum altitude 09:17:19 29° 196° (SSW) 1,177 ? 54.6°
Drops below altitude 10° 09:21:33 10° 137° (SE) 2,134 ? 55.3°
Sets 09:24:20 0° 126° (SE) 3,125 ? 55.7°
